Location: Jackson Park
(37.2862°N, 79.9123°W)
Time: 19:52:41
(UTC+00:00)

Vanguard 2 Rocket - Pass Details

Date: 10 May 2026
Orbit: 553 x 3286 km, 32.9° (Epoch: 6 June)

Event Time Altitude Azimuth Distance (km) Brightness Sun altitude
Rises 00:14:01 0° 284° (WNW) 7,239 14.0 -0.4°
Reaches altitude 10° 00:19:48 10° 277° (W) 6,078 12.7 -1.4°
Maximum altitude 00:34:51 33° 222° (SW) 3,651 10.2 -4.2°
Drops below altitude 10° 00:45:24 10° 164° (SSE) 4,227 9.9 -6.0°
Sets 00:48:37 0° 154° (SSE) 4,861 10.1 -6.6°
